DW4135 Milton FL US current weather conditions

sailwx.info

Wind from 266

Air temperature 17.2° C
Dewpoint 5.2° C

Last reported at 2020-Jan-28 21:07 UTC.
Time now 2020-Jan-28 22:12 UTC

Location: N 30°40' W 087°03'.
View on Google Maps.

See reports from other nearby stations

  
Tides and Currents Weather Stations Pressure Air Temp Water Temp Dewpoint Dewpoint Depression Visibility Wind Speed Wind Dir Waves Ship Positions
date/time (UTC)wind fromknots sea level pressurealtimeterstation pressurevisibilityair tempwater tempwave heightnotes
2020-Jan-28 21:07 266 17.2
2020-Jan-28 21:02 156 17.2
2020-Jan-28 20:57 101 17.2
2020-Jan-28 20:52 349 17.8
2020-Jan-28 20:47 204 0 gusting 2 17.8
2020-Jan-28 20:42 317 0 gusting 2 17.8
2020-Jan-28 20:37 275 0 gusting 2 18.3
2020-Jan-28 20:32 273 0 gusting 1 18.3
2020-Jan-28 20:27 078 0 gusting 2 18.9
2020-Jan-28 20:22 323 0 gusting 2 19.4
2020-Jan-28 20:17 120 0 gusting 1 19.4
2020-Jan-28 20:12 128 20.0
2020-Jan-28 20:07 233 20.0
2020-Jan-28 20:02 256 19.4
2020-Jan-28 19:57 259 0 gusting 1 19.4
2020-Jan-28 19:52 145 0 gusting 1 20.0
2020-Jan-28 19:47 100 20.0
2020-Jan-28 19:42 075 19.4
2020-Jan-28 19:37 264 19.4
2020-Jan-28 19:32 208 0 gusting 2 19.4
2020-Jan-28 19:27 120 19.4
2020-Jan-28 19:22 083 19.4
2020-Jan-28 19:17 204 19.4
2020-Jan-28 19:12 226 0 gusting 2 19.4
2020-Jan-28 19:07 110 0 gusting 2 18.9
2020-Jan-28 19:02 244 0 gusting 2 18.9
2020-Jan-28 18:57 145 19.4
2020-Jan-28 18:52 105 0 gusting 2 19.4
2020-Jan-28 18:47 210 0 gusting 2 18.9
2020-Jan-28 18:42 099 18.9
2020-Jan-28 18:37 077 0 gusting 6 18.9
2020-Jan-28 18:32 030 1 gusting 6 18.3
2020-Jan-28 18:27 200 0 gusting 3 18.3
2020-Jan-28 18:22 100 0 gusting 3 18.9
2020-Jan-28 18:17 120 0 gusting 3 18.9
2020-Jan-28 18:12 300 0 gusting 3 18.3
2020-Jan-28 18:07 235 0 gusting 4 18.3
2020-Jan-28 18:02 195 18.3
2020-Jan-28 17:57 131 0 gusting 2 18.3
2020-Jan-28 17:52 243 0 gusting 2 17.8
2020-Jan-28 17:47 125 0 gusting 3 17.8
2020-Jan-28 17:42 145 0 gusting 3 17.8
2020-Jan-28 17:37 090 17.8
2020-Jan-28 17:32 088 0 gusting 2 17.8
2020-Jan-28 17:27 158 0 gusting 1 17.2
2020-Jan-28 17:22 205 17.2
2020-Jan-28 17:17 082 0 gusting 5 17.2
2020-Jan-28 17:12 227 0 gusting 5 16.7
2020-Jan-28 17:07 297 16.7
2020-Jan-28 17:02 128 0 gusting 2 16.1
2020-Jan-28 16:57 077 16.1
2020-Jan-28 16:52 121 15.6
2020-Jan-28 16:47 245 0 gusting 2 15.6
2020-Jan-28 16:42 082 0 gusting 2 15.0
2020-Jan-28 16:37 104 0 gusting 2 15.0
2020-Jan-28 16:32 095 0 gusting 2 14.4
2020-Jan-28 16:27 131 0 gusting 1 14.4
2020-Jan-28 16:22 101 0 gusting 4 13.9
2020-Jan-28 16:17 127 13.3
2020-Jan-28 16:12 113 0 gusting 1 13.3
2020-Jan-28 16:07 117 0 gusting 2 13.3
2020-Jan-28 16:02 143 12.8
2020-Jan-28 15:57 110 12.8
2020-Jan-28 15:52 096 12.8
2020-Jan-28 15:47 140 12.2
2020-Jan-28 15:42 091 12.2
2020-Jan-28 15:37 098 11.7
2020-Jan-28 15:32 124 11.7
2020-Jan-28 15:27 175 11.1
2020-Jan-28 15:22 128 10.6
2020-Jan-28 15:17 094 10.6
2020-Jan-28 15:12 091 10.0
2020-Jan-28 15:07 108 10.0
2020-Jan-28 15:02 109 9.4
2020-Jan-28 14:57 109 9.4
2020-Jan-28 14:52 109 8.9
2020-Jan-28 14:47 111 8.3
2020-Jan-28 14:42 113 7.8
2020-Jan-28 14:37 158 6.7
2020-Jan-28 14:32 196 6.7
2020-Jan-28 14:27 196 5.6
2020-Jan-28 14:22 195 5.0
2020-Jan-28 14:17 195 4.4
2020-Jan-28 14:12 195 3.9
2020-Jan-28 14:07 195 3.3
2020-Jan-28 14:02 195 3.3
2020-Jan-28 13:57 195 2.8
2020-Jan-28 13:52 195 2.8
2020-Jan-28 13:47 195 2.8
2020-Jan-28 13:42 195 2.2
2020-Jan-28 13:37 195 2.2
2020-Jan-28 13:32 195 2.2
2020-Jan-28 13:27 195 2.2
2020-Jan-28 13:22 195 2.2
2020-Jan-28 13:17 195 2.2
2020-Jan-28 13:12 195 2.2
2020-Jan-28 13:07 195 1.7
2020-Jan-28 13:02 195 1.7
2020-Jan-28 12:56 195 1.7
2020-Jan-28 12:52 195 2.2
2020-Jan-28 12:46 195 1.7
2020-Jan-28 12:41 195 1.7
2020-Jan-28 12:36 195 1.7
2020-Jan-28 12:31 195 2.2
2020-Jan-28 12:26 195 2.2
2020-Jan-28 12:21 195 2.2
2020-Jan-28 12:16 195 2.2
2020-Jan-28 12:11 195 2.2
2020-Jan-28 12:06 195 2.2
2020-Jan-28 12:01 195 2.2
2020-Jan-28 11:56 195 2.2
2020-Jan-28 11:51 195 2.2
2020-Jan-28 11:46 195 2.2
2020-Jan-28 11:41 195 2.2
2020-Jan-28 11:36 195 2.2
2020-Jan-28 11:31 195 2.2
2020-Jan-28 11:26 195 2.2
2020-Jan-28 11:21 195 2.2
2020-Jan-28 11:16 195 2.2
2020-Jan-28 11:11 195 2.8
2020-Jan-28 11:06 195 2.8
2020-Jan-28 11:01 195 2.8
2020-Jan-28 10:56 195 2.8
2020-Jan-28 10:51 195 2.8
2020-Jan-28 10:46 195 2.8
2020-Jan-28 10:41 195 2.8
2020-Jan-28 10:36 195 2.8
2020-Jan-28 10:31 195 2.8
2020-Jan-28 10:26 195 2.8
2020-Jan-28 10:21 195 2.8
2020-Jan-28 10:16 195 2.8
2020-Jan-28 10:11 195 2.8
2020-Jan-28 10:06 195 2.8
2020-Jan-28 10:01 195 3.3
2020-Jan-28 09:56 195 3.3
2020-Jan-28 09:51 195 3.3
2020-Jan-28 09:46 195 3.3
2020-Jan-28 09:41 195 3.3
2020-Jan-28 09:36 195 3.3
2020-Jan-28 09:31 195 3.3
2020-Jan-28 09:26 195 3.3
2020-Jan-28 09:21 195 3.3
2020-Jan-28 09:16 195 3.3
2020-Jan-28 09:11 195 3.9
2020-Jan-28 09:06 195 3.9
2020-Jan-28 09:01 195 3.9
2020-Jan-28 08:56 195 3.9
2020-Jan-28 08:51 195 3.9
2020-Jan-28 08:46 195 3.9
2020-Jan-28 08:40 195 4.4
2020-Jan-28 08:35 195 4.4
2020-Jan-28 08:31 195 4.4
2020-Jan-28 08:25 195 4.4
2020-Jan-28 08:20 195 4.4
2020-Jan-28 08:15 195 4.4
2020-Jan-28 08:10 195 5.0
2020-Jan-28 08:05 195 5.0
2020-Jan-28 08:00 195 5.0
2020-Jan-28 07:55 195 5.0
2020-Jan-28 07:50 195 5.0
2020-Jan-28 07:45 195 5.0
2020-Jan-28 07:40 195 5.0
2020-Jan-28 07:35 195 5.0
2020-Jan-28 07:30 195 5.0
2020-Jan-28 07:25 195 5.0
2020-Jan-28 07:20 195 5.0
2020-Jan-28 07:15 195 5.0
2020-Jan-28 07:10 195 5.0
2020-Jan-28 07:05 195 5.0
2020-Jan-28 07:00 195 5.0
2020-Jan-28 06:55 195 5.0
2020-Jan-28 06:50 195 5.0
2020-Jan-28 06:45 195 5.0
2020-Jan-28 06:40 195 5.0
2020-Jan-28 06:35 195 5.6
2020-Jan-28 06:30 195 5.6
2020-Jan-28 06:25 195 5.6
2020-Jan-28 06:20 195 5.6
2020-Jan-28 06:15 195 5.6
2020-Jan-28 06:10 195 5.6
2020-Jan-28 06:05 195 5.6
2020-Jan-28 06:00 195 5.6
2020-Jan-28 05:55 195 5.6
2020-Jan-28 05:50 195 5.6
2020-Jan-28 05:45 195 5.6
2020-Jan-28 05:40 195 5.6
2020-Jan-28 05:35 195 5.6
2020-Jan-28 05:30 195 5.6
2020-Jan-28 05:25 195 5.6
2020-Jan-28 05:20 195 6.1
2020-Jan-28 05:15 195 6.1
2020-Jan-28 05:10 195 6.1
2020-Jan-28 05:05 195 6.1
2020-Jan-28 05:00 195 6.1
2020-Jan-28 04:55 195 6.1
2020-Jan-28 04:50 195 6.1
2020-Jan-28 04:45 195 6.1
2020-Jan-28 04:40 195 6.1
2020-Jan-28 04:35 195 6.1
2020-Jan-28 04:30 195 6.1
2020-Jan-28 04:25 195 6.1
2020-Jan-28 04:20 195 6.1
2020-Jan-28 04:15 195 6.1
2020-Jan-28 04:10 195 6.1
2020-Jan-28 04:05 195 6.1
2020-Jan-28 04:00 195 6.7
2020-Jan-28 03:55 195 6.7
2020-Jan-28 03:50 195 6.7
2020-Jan-28 03:45 195 6.7
2020-Jan-28 03:40 195 6.7
2020-Jan-28 03:35 195 6.7
2020-Jan-28 03:30 195 6.7
2020-Jan-28 03:25 195 6.7
2020-Jan-28 03:20 195 6.7
2020-Jan-28 03:15 195 6.7
2020-Jan-28 03:10 195 6.7
2020-Jan-28 03:05 195 6.7
2020-Jan-28 03:00 195 6.7
2020-Jan-28 02:55 195 6.7
2020-Jan-28 02:50 195 6.7
2020-Jan-28 02:45 195 6.7
2020-Jan-28 02:40 195 6.7
2020-Jan-28 02:35 195 6.7
2020-Jan-28 02:30 195 6.7
2020-Jan-28 02:25 195 6.7
2020-Jan-28 02:20 195 6.7
2020-Jan-28 02:15 195 7.2
2020-Jan-28 02:10 195 7.2
2020-Jan-28 02:05 195 7.2
2020-Jan-28 02:00 195 7.2
2020-Jan-28 01:55 195 7.2
2020-Jan-28 01:50 195 7.2
2020-Jan-28 01:45 195 7.2
2020-Jan-28 01:39 195 7.8
2020-Jan-28 01:34 195 7.8
2020-Jan-28 01:29 195 7.8
2020-Jan-28 01:24 195 7.8
2020-Jan-28 01:19 195 7.8
2020-Jan-28 01:14 195 7.8
2020-Jan-28 01:09 195 7.8
2020-Jan-28 01:04 195 8.3
2020-Jan-28 00:59 195 8.3
2020-Jan-28 00:54 195 8.3
2020-Jan-28 00:49 195 8.3
2020-Jan-28 00:44 195 8.3
2020-Jan-28 00:39 195 8.3
2020-Jan-28 00:34 195 8.3
2020-Jan-28 00:29 195 8.9
2020-Jan-28 00:24 195 8.9
2020-Jan-28 00:19 195 8.9
2020-Jan-28 00:14 195 9.4
2020-Jan-28 00:09 195 9.4
2020-Jan-28 00:04 195 9.4
2020-Jan-27 23:59 195 9.4
2020-Jan-27 23:54 195 10.0
2020-Jan-27 23:49 195 10.0
2020-Jan-27 23:44 195 10.0
2020-Jan-27 23:39 195 10.6
2020-Jan-27 23:34 195 10.6
2020-Jan-27 23:29 195 10.6
2020-Jan-27 23:24 195 11.1
2020-Jan-27 23:19 195 11.7
2020-Jan-27 23:14 195 11.7
2020-Jan-27 23:09 195 11.7
2020-Jan-27 23:04 135 12.2
2020-Jan-27 22:59 134 12.2
2020-Jan-27 22:54 134 12.8
2020-Jan-27 22:49 134 12.8
2020-Jan-27 22:44 132 12.8
2020-Jan-27 22:39 136 13.3
2020-Jan-27 22:34 171 13.3
2020-Jan-27 22:29 254 13.3
2020-Jan-27 22:24 251 13.3
2020-Jan-27 22:19 130 13.3
2020-Jan-27 22:14 097 13.3
2020-Jan-27 22:09 097 13.3
2020-Jan-27 22:04 098 13.3
2020-Jan-27 21:59 097 13.3
2020-Jan-27 21:54 105 13.3
2020-Jan-27 21:49 097 13.3
2020-Jan-27 21:44 127 13.3
2020-Jan-27 21:39 111 13.3
2020-Jan-27 21:34 109 13.3
2020-Jan-27 21:29 105 13.3
2020-Jan-27 21:24 200 12.8
2020-Jan-27 21:19 109 12.8
2020-Jan-27 21:14 110 12.8
2020-Jan-27 21:09 216 12.8
2020-Jan-27 21:04 223 12.8
2020-Jan-27 20:59 249 12.8
2020-Jan-27 20:54 206 0 gusting 2 12.8
2020-Jan-27 20:49 105 12.8
2020-Jan-27 20:44 205 12.8
2020-Jan-27 20:39 191 12.8
2020-Jan-27 20:34 191 12.8
2020-Jan-27 20:29 117 12.8
2020-Jan-27 20:24 027 12.8
2020-Jan-27 20:18 276 0 gusting 1 12.8
2020-Jan-27 20:13 207 0 gusting 1 12.8
2020-Jan-27 20:08 263 13.3
2020-Jan-27 20:03 280 13.3
2020-Jan-27 19:59 306 13.3
2020-Jan-27 19:53 140 0 gusting 2 13.3
2020-Jan-27 19:48 280 13.9
2020-Jan-27 19:43 131 0 gusting 4 13.9
2020-Jan-27 19:38 169 0 gusting 4 13.9
2020-Jan-27 19:33 131 0 gusting 3 13.9
2020-Jan-27 19:28 294 0 gusting 3 13.9
2020-Jan-27 19:23 277 0 gusting 4 14.4
2020-Jan-27 19:18 267 0 gusting 4 14.4
2020-Jan-27 19:13 053 0 gusting 2 14.4
2020-Jan-27 19:08 252 0 gusting 2 15.0
2020-Jan-27 19:03 113 0 gusting 2 15.0
2020-Jan-27 18:58 264 0 gusting 5 15.0
2020-Jan-27 18:53 013 0 gusting 5 15.0
2020-Jan-27 18:48 122 0 gusting 4 15.0
2020-Jan-27 18:43 314 0 gusting 2 15.0
2020-Jan-27 18:38 291 15.6
2020-Jan-27 18:33 239 0 gusting 4 15.6
2020-Jan-27 18:28 117 0 gusting 4 15.6
2020-Jan-27 18:23 309 0 gusting 2 15.6
2020-Jan-27 18:18 334 0 gusting 3 15.6
2020-Jan-27 18:13 276 0 gusting 3 15.6
2020-Jan-27 18:08 269 0 gusting 3 15.6
2020-Jan-27 18:03 139 15.6
2020-Jan-27 17:58 220 0 gusting 1 15.6
2020-Jan-27 17:53 285 0 gusting 1 15.6
2020-Jan-27 17:48 353 0 gusting 1 15.6
2020-Jan-27 17:43 132 0 gusting 2 15.6
2020-Jan-27 17:38 289 0 gusting 3 15.6
2020-Jan-27 17:33 068 0 gusting 3 15.6
2020-Jan-27 17:28 125 0 gusting 3 15.6
2020-Jan-27 17:23 276 0 gusting 3 16.1
2020-Jan-27 17:18 166 1 gusting 5 16.1
2020-Jan-27 17:13 132 0 gusting 5 16.1
2020-Jan-27 17:08 172 16.1
2020-Jan-27 17:03 203 0 gusting 3 15.6
2020-Jan-27 16:58 124 0 gusting 3 15.6
2020-Jan-27 16:53 199 0 gusting 2 15.6
2020-Jan-27 16:48 161 0 gusting 3 15.0
2020-Jan-27 16:43 103 0 gusting 3 14.4
2020-Jan-27 16:38 119 0 gusting 2 14.4
2020-Jan-27 16:33 097 13.9
2020-Jan-27 16:28 105 13.9
2020-Jan-27 16:23 066 0 gusting 2 13.3
2020-Jan-27 16:18 307 0 gusting 2 13.3
2020-Jan-27 16:13 167 0 gusting 2 13.3
2020-Jan-27 16:08 100 0 gusting 2 12.8
2020-Jan-27 16:03 178 12.8
2020-Jan-27 15:58 116 12.2
2020-Jan-27 15:53 128 11.7
2020-Jan-27 15:48 134 11.7
2020-Jan-27 15:43 328 11.7
2020-Jan-27 15:38 104 11.1
2020-Jan-27 15:33 103 11.1
2020-Jan-27 15:28 172 10.6
2020-Jan-27 15:23 113 10.6
2020-Jan-27 15:18 093 10.6
2020-Jan-27 15:13 092 10.6
2020-Jan-27 15:08 105 10.6
2020-Jan-27 15:02 113 10.0
2020-Jan-27 14:58 101 10.0
2020-Jan-27 14:53 201 10.0
2020-Jan-27 14:47 201 10.0
2020-Jan-27 14:43 169 9.4
2020-Jan-27 14:37 110 9.4
2020-Jan-27 14:32 134 9.4
2020-Jan-27 14:27 088 9.4
2020-Jan-27 14:22 124 9.4
2020-Jan-27 14:17 097 9.4
2020-Jan-27 14:12 097 9.4
2020-Jan-27 14:07 096 8.9
2020-Jan-27 14:02 097 8.9
2020-Jan-27 13:57 097 8.9
2020-Jan-27 13:52 097 8.9
2020-Jan-27 13:47 097 8.9
2020-Jan-27 13:42 097 8.9
2020-Jan-27 13:37 095 8.9
2020-Jan-27 13:32 096 8.9
2020-Jan-27 13:27 102 8.9
2020-Jan-27 13:22 102 8.9
2020-Jan-27 13:17 102 8.9
2020-Jan-27 13:12 102 8.9
2020-Jan-27 13:07 102 8.9
2020-Jan-27 13:02 102 8.9
2020-Jan-27 12:57 110 8.9
2020-Jan-27 12:52 110 8.9
2020-Jan-27 12:47 110 8.9
2020-Jan-27 12:42 110 8.9
2020-Jan-27 12:37 110 8.9
2020-Jan-27 12:32 111 8.9
2020-Jan-27 12:27 111 8.9
2020-Jan-27 12:22 111 8.9
2020-Jan-27 12:17 111 8.9
2020-Jan-27 12:12 110 8.9
2020-Jan-27 12:07 110 8.9
2020-Jan-27 12:02 110 8.3
2020-Jan-27 11:57 110 8.3
2020-Jan-27 11:52 108 8.3
2020-Jan-27 11:47 108 8.9
2020-Jan-27 11:42 108 8.3
2020-Jan-27 11:37 107 8.3
2020-Jan-27 11:32 108 8.3
2020-Jan-27 11:26 108 8.3
2020-Jan-27 11:21 108 8.3
2020-Jan-27 11:16 108 8.9
2020-Jan-27 11:11 103 8.3
2020-Jan-27 11:06 103 8.3
2020-Jan-27 11:01 103 8.3
2020-Jan-27 10:56 103 8.3
2020-Jan-27 10:51 103 8.3
2020-Jan-27 10:46 087 8.3
2020-Jan-27 10:41 083 8.3
2020-Jan-27 10:36 052 8.3
2020-Jan-27 10:31 052 8.3
2020-Jan-27 10:26 347 8.3
2020-Jan-27 10:21 082 8.3
2020-Jan-27 10:16 067 8.3
2020-Jan-27 10:11 067 8.3
2020-Jan-27 10:06 067 8.3
2020-Jan-27 10:01 067 8.3
2020-Jan-27 09:56 064 8.3
2020-Jan-27 09:51 064 8.3
2020-Jan-27 09:46 064 8.3
2020-Jan-27 09:41 064 8.3
2020-Jan-27 09:36 064 8.3
2020-Jan-27 09:31 064 8.3
2020-Jan-27 09:26 064 8.3
2020-Jan-27 09:21 064 8.3
2020-Jan-27 09:16 064 8.3
2020-Jan-27 09:11 064 8.3
2020-Jan-27 09:06 064 8.3
2020-Jan-27 09:01 064 8.3
2020-Jan-27 08:56 064 8.3
2020-Jan-27 08:51 063 8.3
2020-Jan-27 08:46 063 8.3
2020-Jan-27 08:41 063 8.3
2020-Jan-27 08:36 063 8.3
2020-Jan-27 08:31 063 8.3
2020-Jan-27 08:26 063 8.3
2020-Jan-27 08:21 063 8.3
2020-Jan-27 08:16 063 8.3
2020-Jan-27 08:11 063 8.3
2020-Jan-27 08:06 049 8.3
2020-Jan-27 08:01 049 8.3
2020-Jan-27 07:56 049 8.3
2020-Jan-27 07:51 049 8.3
2020-Jan-27 07:46 049 8.3
2020-Jan-27 07:41 011 8.3
2020-Jan-27 07:36 011 8.3
2020-Jan-27 07:31 011 8.3
2020-Jan-27 07:26 011 8.3
2020-Jan-27 07:21 014 8.3
2020-Jan-27 07:16 092 8.3
2020-Jan-27 07:11 092 8.3
2020-Jan-27 07:06 092 8.3
2020-Jan-27 07:01 089 8.3
2020-Jan-27 06:56 089 8.3
2020-Jan-27 06:51 089 8.3
2020-Jan-27 06:46 089 8.3
2020-Jan-27 06:41 089 8.3
2020-Jan-27 06:36 089 8.3
2020-Jan-27 06:31 089 8.3
2020-Jan-27 06:26 089 8.3
2020-Jan-27 06:21 089 8.3
2020-Jan-27 06:16 089 8.3
2020-Jan-27 06:11 089 8.3
2020-Jan-27 06:06 089 8.3
2020-Jan-27 06:01 089 8.3
2020-Jan-27 05:56 089 8.3
2020-Jan-27 05:51 089 8.3
2020-Jan-27 05:46 089 8.3
2020-Jan-27 05:41 089 8.3
2020-Jan-27 05:36 089 8.3
2020-Jan-27 05:31 089 8.3
2020-Jan-27 05:26 089 8.3
2020-Jan-27 05:21 089 8.3
2020-Jan-27 05:16 089 8.3
2020-Jan-27 05:11 089 8.3
2020-Jan-27 05:06 089 8.3
2020-Jan-27 05:01 089 8.3
2020-Jan-27 04:56 089 8.3
2020-Jan-27 04:51 089 8.3
2020-Jan-27 04:46 089 8.3
2020-Jan-27 04:41 089 8.3
2020-Jan-27 04:36 089 8.3
2020-Jan-27 04:31 089 8.3
2020-Jan-27 04:26 088 8.3
2020-Jan-27 04:21 089 8.3
2020-Jan-27 04:16 088 8.3
2020-Jan-27 04:11 089 8.3
2020-Jan-27 04:06 089 8.3
2020-Jan-27 04:01 089 8.3
2020-Jan-27 03:56 088 8.3
2020-Jan-27 03:51 096 8.3
2020-Jan-27 03:46 096 8.3
2020-Jan-27 03:40 096 8.3
2020-Jan-27 03:35 096 8.3
2020-Jan-27 03:30 096 8.3
2020-Jan-27 03:25 096 8.9
2020-Jan-27 03:21 096 8.9
2020-Jan-27 03:16 096 8.9
2020-Jan-27 03:10 096 8.3
2020-Jan-27 03:05 096 8.3
2020-Jan-27 03:00 096 8.3
2020-Jan-27 02:55 096 8.9
2020-Jan-27 02:50 096 8.3
2020-Jan-27 02:45 096 8.3
2020-Jan-27 02:40 094 8.3
2020-Jan-27 02:35 094 8.3
2020-Jan-27 02:30 094 8.3
2020-Jan-27 02:25 094 8.3
2020-Jan-27 02:20 094 8.3
2020-Jan-27 02:15 094 8.3
2020-Jan-27 02:10 094 8.3
2020-Jan-27 02:05 094 8.3
2020-Jan-27 02:00 094 8.3
2020-Jan-27 01:55 090 8.3
2020-Jan-27 01:50 098 8.3
2020-Jan-27 01:45 093 8.3
2020-Jan-27 01:40 093 8.3
2020-Jan-27 01:35 093 8.3
2020-Jan-27 01:30 092 8.3
2020-Jan-27 01:25 092 8.3
2020-Jan-27 01:20 092 8.3
2020-Jan-27 01:15 092 8.3
2020-Jan-27 01:10 092 8.3
2020-Jan-27 01:05 092 8.3
2020-Jan-27 01:00 093 8.3
2020-Jan-27 00:55 093 8.3
2020-Jan-27 00:50 093 8.3
2020-Jan-27 00:45 092 8.3
2020-Jan-27 00:40 093 8.3
2020-Jan-27 00:35 093 8.3
2020-Jan-27 00:30 092 8.3
2020-Jan-27 00:25 085 8.3
2020-Jan-27 00:20 089 8.3
2020-Jan-27 00:15 311 8.3
2020-Jan-27 00:10 311 8.3
2020-Jan-27 00:05 311 8.3
2020-Jan-27 00:00 311 8.3
2020-Jan-26 23:55 311 8.3
2020-Jan-26 23:50 311 8.3
2020-Jan-26 23:45 311 8.3
2020-Jan-26 23:40 311 8.3
2020-Jan-26 23:35 200 8.3
2020-Jan-26 23:30 174 8.9
2020-Jan-26 23:25 328 8.9
2020-Jan-26 23:20 328 8.9
2020-Jan-26 23:15 292 8.9
2020-Jan-26 23:10 292 8.9
2020-Jan-26 23:05 233 8.9
2020-Jan-26 23:00 110 8.9
2020-Jan-26 22:55 155 8.9
2020-Jan-26 22:50 129 8.9
2020-Jan-26 22:45 129 8.9
2020-Jan-26 22:40 203 8.9
2020-Jan-26 22:35 205 8.9
2020-Jan-26 22:30 195 9.4
2020-Jan-26 22:25 195 9.4
2020-Jan-26 22:20 195 9.4
2020-Jan-26 22:15 195 9.4
2020-Jan-26 22:10 195 9.4
2020-Jan-26 22:05 195 9.4
2020-Jan-26 22:00 195 9.4